Torna al catalogo

STARLINK-33875

AttivoComunicazioniVLEO
NORAD 63789·PAYLOAD·🇺🇸 United States

Lanciato May 2, 2025 da Cape Canaveral Space Force Station

Loading…

Prossimi Passaggi (prossime 24 ore)

TLE

AggiornatoSource: CelesTrak SupGP

Epoca: Sep 15, 2026, 03:25 UTC

1 63789C 25091Q   26258.14284722 -.00031522  00000+0 -11418-2 0  2582
2 63789  43.0041  62.4246 0001632 269.2095 266.9128 15.27591380    12

Traccia STARLINK-33875 in tempo reale con AllMySat

Download on the App Store